Location: Edoum�
(0.9447°N, 10.6482°E)
Time: 14:46:42
(UTC+00:00)

USA 229 - Pass Details

Date: 07 June 2020
Orbit: 980 x 1233 km, 63.4° (Epoch: 24 June)

Event Time Altitude Azimuth Distance (km) Brightness Sun altitude
Rises 03:10:21 0° 331° (NNW) 4,110 6.7 -28.4°
Reaches altitude 10° 03:13:07 10° 328° (NNW) 3,164 6.1 -27.8°
Maximum altitude 03:20:42 65° 248° (WSW) 1,336 3.8 -26.1°
Drops below altitude 10° 03:28:20 10° 167° (SSE) 3,170 6.0 -24.3°
Sets 03:31:06 0° 164° (SSE) 4,119 6.7 -23.7°
